RYR79RN LZIB-EGPH

Flight info

Callsign RYR79RN
Flight time N/A
Altitude 36000
Route TOVKA DCT DITIS DCT VEXIL DCT KUMER DCT LONAM DCT AGPED
Aircraft B738/M-SDE2E3FGHIRWXY/LB1

Departure

Time 2026-05-05 08:20
Airport M. R. Štefánik Airport (LZIB)

Arrival

Time N/A
Airport Edinburgh Airport (EGPH)
Time Latitude Longitude Altitude Speed Heading
2026-05-05 08:00 48.17003 17.20216 431 ft 0 kts 314°
2026-05-05 08:14 48.16999 17.20223 421 ft 4 kts 315°
2026-05-05 08:14 48.16978 17.20248 419 ft 4 kts 335°
2026-05-05 08:14 48.16954 17.20256 422 ft 4 kts 17°
2026-05-05 08:15 48.16942 17.20248 429 ft 0 kts 44°
2026-05-05 08:16 48.16943 17.20249 429 ft 1 kts 44°
2026-05-05 08:16 48.16962 17.20278 420 ft 8 kts 44°
2026-05-05 08:17 48.17017 17.20357 426 ft 12 kts 44°
2026-05-05 08:17 48.17080 17.20451 423 ft 14 kts 44°
2026-05-05 08:17 48.17155 17.20558 423 ft 16 kts 40°
2026-05-05 08:17 48.17252 17.20516 428 ft 17 kts 316°
2026-05-05 08:18 48.17342 17.20380 422 ft 19 kts 316°
2026-05-05 08:18 48.17454 17.20303 430 ft 18 kts
2026-05-05 08:18 48.17545 17.20409 423 ft 15 kts 71°
2026-05-05 08:18 48.17511 17.20491 429 ft 9 kts 133°
2026-05-05 08:19 48.17465 17.20562 430 ft 13 kts 135°
2026-05-05 08:19 48.17245 17.20902 426 ft 80 kts 134°
2026-05-05 08:19 48.16722 17.21713 425 ft 137 kts 134°
2026-05-05 08:19 48.15966 17.22873 724 ft 162 kts 135°
2026-05-05 08:20 48.15195 17.24080 1596 ft 165 kts 137°
2026-05-05 08:20 48.14342 17.25388 2204 ft 183 kts 139°
2026-05-05 08:20 48.13459 17.26826 2869 ft 193 kts 137°
2026-05-05 08:20 48.12582 17.28403 3453 ft 200 kts 135°
2026-05-05 08:21 48.11678 17.30064 3783 ft 217 kts 133°
2026-05-05 08:21 48.10898 17.32099 4173 ft 238 kts 110°
2026-05-05 08:21 48.11038 17.34578 4969 ft 249 kts 68°
2026-05-05 08:21 48.12153 17.36561 5729 ft 252 kts 41°
2026-05-05 08:22 48.13698 17.37926 6120 ft 272 kts 12°
2026-05-05 08:22 48.15623 17.37854 6382 ft 287 kts 336°
2026-05-05 08:22 48.17222 17.36163 6925 ft 283 kts 302°
2026-05-05 08:22 48.18165 17.33602 7636 ft 281 kts 287°
2026-05-05 08:23 48.18816 17.30818 8385 ft 282 kts 283°
2026-05-05 08:23 48.19394 17.27995 9118 ft 286 kts 283°
2026-05-05 08:23 48.19977 17.25131 9809 ft 290 kts 283°
2026-05-05 08:23 48.20581 17.22216 10349 ft 299 kts 283°
2026-05-05 08:24 48.21230 17.19125 10503 ft 322 kts 284°
2026-05-05 08:24 48.21925 17.15875 10734 ft 340 kts 284°
2026-05-05 08:24 48.22668 17.12456 11257 ft 348 kts 284°
2026-05-05 08:24 48.23426 17.08990 11939 ft 351 kts 284°
2026-05-05 08:25 48.24189 17.05505 12667 ft 353 kts 284°
2026-05-05 08:25 48.24959 17.01987 13394 ft 357 kts 287°
2026-05-05 08:25 48.25733 16.98429 14067 ft 358 kts 288°
2026-05-05 08:25 48.26087 16.96803 14451 ft 358 kts 288°
2026-05-05 08:26 48.26862 16.93276 15162 ft 361 kts 289°
2026-05-05 08:26 48.27270 16.91693 15447 ft 363 kts 294°